TimeEDT,TemperatureF,Dew PointF,Humidity,Sea Level PressureIn,VisibilityMPH,Wind Direction,Wind SpeedMPH,Gust SpeedMPH,PrecipitationIn,Events,Conditions,WindDirDegrees,DateUTC
12:55 AM,73.9,57.0,55,29.96,10.0,South,17.3,26.5,N/A,,Clear,180,2013-05-01 04:55:00
1:55 AM,73.0,57.0,57,29.98,10.0,South,13.8,27.6,N/A,,Clear,190,2013-05-01 05:55:00
2:55 AM,72.0,57.0,59,29.99,10.0,South,16.1,23.0,N/A,,Clear,190,2013-05-01 06:55:00
3:55 AM,71.1,55.9,59,30.00,10.0,South,15.0,23.0,N/A,,Clear,190,2013-05-01 07:55:00
4:55 AM,70.0,55.9,61,30.01,10.0,South,10.4,20.7,N/A,,Clear,180,2013-05-01 08:55:00
5:55 AM,70.0,55.9,61,30.03,10.0,South,10.4,-,N/A,,Clear,190,2013-05-01 09:55:00
6:55 AM,69.1,55.9,63,30.06,10.0,South,9.2,-,N/A,,Clear,180,2013-05-01 10:55:00
7:55 AM,69.1,55.9,63,30.08,10.0,South,9.2,-,N/A,,Clear,170,2013-05-01 11:55:00
8:55 AM,72.0,54.0,53,30.10,10.0,South,15.0,21.9,N/A,,Clear,190,2013-05-01 12:55:00
9:55 AM,73.0,54.0,51,30.11,10.0,South,13.8,-,N/A,,Clear,180,2013-05-01 13:55:00
10:55 AM,75.0,54.0,48,30.12,10.0,South,12.7,19.6,N/A,,Clear,190,2013-05-01 14:55:00
11:55 AM,75.9,54.0,46,30.13,10.0,SSW,15.0,-,N/A,,Clear,200,2013-05-01 15:55:00
12:55 PM,77.0,54.0,45,30.13,10.0,SSW,12.7,-,N/A,,Clear,200,2013-05-01 16:55:00
1:55 PM,78.1,53.1,42,30.13,10.0,SSW,11.5,-,N/A,,Clear,210,2013-05-01 17:55:00
2:55 PM,80.1,52.0,38,30.13,10.0,SW,9.2,-,N/A,,Clear,220,2013-05-01 18:55:00
3:55 PM,81.0,50.0,34,30.12,10.0,WSW,8.1,-,N/A,,Clear,240,2013-05-01 19:55:00
4:55 PM,80.1,51.1,36,30.13,10.0,West,6.9,-,N/A,,Clear,270,2013-05-01 20:55:00
5:55 PM,79.0,50.0,36,30.13,10.0,West,6.9,-,N/A,,Clear,260,2013-05-01 21:55:00
6:55 PM,78.1,50.0,37,30.13,10.0,West,4.6,-,N/A,,Clear,270,2013-05-01 22:55:00
7:55 PM,75.9,50.0,40,30.14,10.0,Calm,Calm,-,N/A,,Clear,0,2013-05-01 23:55:00
8:55 PM,73.0,50.0,44,30.15,10.0,Calm,Calm,-,N/A,,Partly Cloudy,0,2013-05-02 00:55:00
9:55 PM,71.1,52.0,51,30.17,10.0,Calm,Calm,-,N/A,,Clear,0,2013-05-02 01:55:00
10:55 PM,68.0,54.0,61,30.17,10.0,Calm,Calm,-,N/A,,Clear,0,2013-05-02 02:55:00
11:55 PM,66.0,53.1,63,30.16,10.0,Calm,Calm,-,N/A,,Clear,0,2013-05-02 03:55:00